Zurück zum Katalog

STARLINK-32552

AktivKommunikationVLEO
NORAD 62174·PAYLOAD·🇺🇸 United States

Gestartet Nov 30, 2024 von Vandenberg Space Force Base

Loading…

Nächste Überflüge (nächste 24 Stunden)

TLE

AktuellSource: CelesTrak SupGP

Epoche: Sep 14, 2026, 21:42 UTC

1 62174C 24225M   26257.90465278  .00044692  00000+0  37466-2 0  2577
2 62174  70.0018  47.2588 0002691 278.8470 331.6136 14.98297112    14

Verfolge STARLINK-32552 in Echtzeit mit AllMySat

Download on the App Store